DIAMANT R/B, 1805

Orbit data source: Space-Track

DIAMANT R/B, 1805 is space debris in LEO originally from a launch on Fri, 26 Nov 1965 UTC launched from the Hamma Guira Space Track Range (HGSTR). Debris objects in space refer to the collection of defunct objects orbiting the Earth. Examples of debris include non-operational satellites, rocket bodies, and fragments generated from explosions, collisions, or faulty payload assembly.

Loading next visibility...
Identifier
1805, 1965-096B
Orbit
LEO
Country
Flag of FRFR
Related business
Manufacturer
Sud
Mission
Spacecraft
Bus & Motor
RUBIS, Unknown motor
Mass
65 kg wet, 65 kg dry
Launch date (UTC)
1965-11-26 (60 years ago)
Launch vehicle
Unknown
Launch site
Hamma Guira Space Track Range (HGSTR)
Object type
Payload
Rocket body
Debris
Shape & HBR
Unknown
Radar Cross Section
Large (>1 m²)

Expand to show TLE details & history
Last TLE update: 22 hours ago

TLE from 22 hours ago
0 DIAMANT R/B
1 01805U 65096B   26037.11982525  .00001569  00000-0  32319-3 0  9993
2 01805  34.2479 312.3027 0584168 179.4050 180.7406 13.87681200986499
Epoch: 2026-02-06T02:52Z
TLE epoch observation values (Epoch: 2026-02-06T02:52:32.901Z)
Latitude
-0.00002°
Longitude
132.90332°
Altitude
1,362.85 km
Speed
6.967 km/s
True Right ascension
20h 49m 12s
True Declination
0° 00' 00"
Sunlit
Object was in daylight at epoch
Visualization orbit readout
Latitude
Unknown
Longitude
Unknown
Altitude
Unknown
Speed
Unknown
Apparent Right ascension
Unknown
Apparent Declination
Unknown
Sunlit
N/A
Visualization observer readout
Local Sidereal Time
03:11:53
Azimuth
Unknown
Elevation
Unknown
Doppler factor
Unknown
Orbital elements
Apogee altitude
1,367.45 km
Perigee altitude
512.451 km
Semi-major axis
7,318.087 km
Eccentricity
0.05842
Inclination
34.2479°
RAAN
312.3027°
Arg. of periapsis
179.405°
True anomaly
180.65998°
Mean anomaly
180.7406°
Eccentric anomaly
180.69973°
Mean motion
3.46694 °/min
Orbital period
103.84 mins
BSTAR
0.00032319
Loading maneuver chart data...
Computing Atmospheric mass density...
Loading historical data...
Loading historical data...
Loading historical data...
Loading historical data...
Loading historical data...
Loading historical data...
Loading historical data...
Other satellites on launch #96 in the year 1965 (1965-11-26 UTC)

Documentation

Showing up to 5 results
|